owner,sensor,date,latitude,longitude,vertical_datum,mass_concentration_of_oxygen_in_sea_water,qcFlag 
SCCF RECON,ioos:station:SCCF:51:1,2011-04-01T00:00:00Z,26.5545,-82.1715,1.632,6.19,1111122 
SCCF RECON,ioos:station:SCCF:51:1,2011-04-01T01:00:00Z,26.5545,-82.1715,1.736,6.12,1111122 
SCCF RECON,ioos:station:SCCF:51:1,2011-04-01T02:00:00Z,26.5545,-82.1715,1.891,5.99,1111122 
SCCF RECON,ioos:station:SCCF:51:1,2011-04-01T03:00:00Z,26.5545,-82.1715,1.959,5.91,1111122 
SCCF RECON,ioos:station:SCCF:51:1,2011-04-01T04:00:00Z,26.5545,-82.1715,1.991,5.88,1111122 
SCCF RECON,ioos:station:SCCF:51:1,2011-04-01T05:00:00Z,26.5545,-82.1715,1.964,5.75,1111122 
SCCF RECON,ioos:station:SCCF:51:1,2011-04-01T06:00:00Z,26.5545,-82.1715,1.899,5.77,1111122 
SCCF RECON,ioos:station:SCCF:51:1,2011-04-01T07:00:00Z,26.5545,-82.1715,1.82,5.68,1111122 
SCCF RECON,ioos:station:SCCF:51:1,2011-04-01T08:00:00Z,26.5545,-82.1715,1.738,5.56,1111122 
SCCF RECON,ioos:station:SCCF:51:1,2011-04-01T09:00:00Z,26.5545,-82.1715,1.656,5.5,1111122 
SCCF RECON,ioos:station:SCCF:51:1,2011-04-01T10:00:00Z,26.5545,-82.1715,1.614,5.58,1111122 
SCCF RECON,ioos:station:SCCF:51:1,2011-04-01T11:00:00Z,26.5545,-82.1715,1.575,5.63,1111122 
SCCF RECON,ioos:station:SCCF:51:1,2011-04-01T12:00:00Z,26.5545,-82.1715,1.611,5.5,1111122 
SCCF RECON,ioos:station:SCCF:51:1,2011-04-01T13:00:00Z,26.5545,-82.1715,1.682,5.54,1111122 
SCCF RECON,ioos:station:SCCF:51:1,2011-04-01T14:00:00Z,26.5545,-82.1715,1.78,5.68,1111122 
SCCF RECON,ioos:station:SCCF:51:1,2011-04-01T15:00:00Z,26.5545,-82.1715,1.874,5.72,1111122 
SCCF RECON,ioos:station:SCCF:51:1,2011-04-01T16:00:00Z,26.5545,-82.1715,1.909,5.82,1111122 
SCCF RECON,ioos:station:SCCF:51:1,2011-04-01T17:00:00Z,26.5545,-82.1715,1.895,5.7,1111122 
SCCF RECON,ioos:station:SCCF:51:1,2011-04-01T18:00:00Z,26.5545,-82.1715,1.835,5.95,1111122 
SCCF RECON,ioos:station:SCCF:51:1,2011-04-01T19:00:00Z,26.5545,-82.1715,1.744,6.02,1111122 
SCCF RECON,ioos:station:SCCF:51:1,2011-04-01T20:00:00Z,26.5545,-82.1715,1.657,6.16,1111122 
SCCF RECON,ioos:station:SCCF:51:1,2011-04-01T21:00:00Z,26.5545,-82.1715,1.57,6.21,1111122 
SCCF RECON,ioos:station:SCCF:51:1,2011-04-01T22:00:00Z,26.5545,-82.1715,1.485,6.13,1111122 
SCCF RECON,ioos:station:SCCF:51:1,2011-04-01T23:00:00Z,26.5545,-82.1715,1.428,6.05,1111122 
SCCF RECON,ioos:station:SCCF:51:1,2011-04-02T00:00:00Z,26.5545,-82.1715,1.428,6.07,1111122 
SCCF RECON,ioos:station:SCCF:51:1,2011-04-02T01:00:00Z,26.5545,-82.1715,1.497,6.07,1111122 
SCCF RECON,ioos:station:SCCF:51:1,2011-04-02T02:00:00Z,26.5545,-82.1715,1.582,6.14,1111122 
SCCF RECON,ioos:station:SCCF:51:1,2011-04-02T03:00:00Z,26.5545,-82.1715,1.699,6.21,1111122 
SCCF RECON,ioos:station:SCCF:51:1,2011-04-02T04:00:00Z,26.5545,-82.1715,1.802,6.06,1111122 
SCCF RECON,ioos:station:SCCF:51:1,2011-04-02T05:00:00Z,26.5545,-82.1715,1.873,5.83,1111122 
SCCF RECON,ioos:station:SCCF:51:1,2011-04-02T06:00:00Z,26.5545,-82.1715,1.863,5.72,1111122 
SCCF RECON,ioos:station:SCCF:51:1,2011-04-02T07:00:00Z,26.5545,-82.1715,1.8,5.82,1111122 
SCCF RECON,ioos:station:SCCF:51:1,2011-04-02T08:00:00Z,26.5545,-82.1715,1.701,5.65,1111122 
SCCF RECON,ioos:station:SCCF:51:1,2011-04-02T09:00:00Z,26.5545,-82.1715,1.61,5.61,1111122 
SCCF RECON,ioos:station:SCCF:51:1,2011-04-02T10:00:00Z,26.5545,-82.1715,1.554,5.37,1111122 
SCCF RECON,ioos:station:SCCF:51:1,2011-04-02T11:00:00Z,26.5545,-82.1715,1.522,5.32,1111122 
SCCF RECON,ioos:station:SCCF:51:1,2011-04-02T12:00:00Z,26.5545,-82.1715,1.549,5.44,1111122 
SCCF RECON,ioos:station:SCCF:51:1,2011-04-02T13:00:00Z,26.5545,-82.1715,1.625,5.62,1111122 
SCCF RECON,ioos:station:SCCF:51:1,2011-04-02T14:00:00Z,26.5545,-82.1715,1.723,5.74,1111122 
SCCF RECON,ioos:station:SCCF:51:1,2011-04-02T15:00:00Z,26.5545,-82.1715,1.835,5.7,1111122 
SCCF RECON,ioos:station:SCCF:51:1,2011-04-02T16:00:00Z,26.5545,-82.1715,1.907,5.75,1111122 
SCCF RECON,ioos:station:SCCF:51:1,2011-04-02T17:00:00Z,26.5545,-82.1715,1.94,5.62,1111122 
SCCF RECON,ioos:station:SCCF:51:1,2011-04-02T18:00:00Z,26.5545,-82.1715,1.903,5.86,1111122 
SCCF RECON,ioos:station:SCCF:51:1,2011-04-02T19:00:00Z,26.5545,-82.1715,1.822,5.97,1111122 
SCCF RECON,ioos:station:SCCF:51:1,2011-04-02T20:00:00Z,26.5545,-82.1715,1.722,5.96,1111122 
SCCF RECON,ioos:station:SCCF:51:1,2011-04-02T21:00:00Z,26.5545,-82.1715,1.613,6.03,1111122 
SCCF RECON,ioos:station:SCCF:51:1,2011-04-02T22:00:00Z,26.5545,-82.1715,1.514,6.2,1111122 
SCCF RECON,ioos:station:SCCF:51:1,2011-04-02T23:00:00Z,26.5545,-82.1715,1.438,6.53,1111122 
SCCF RECON,ioos:station:SCCF:51:1,2011-04-03T00:00:00Z,26.5545,-82.1715,1.405,6.92,1111122 
SCCF RECON,ioos:station:SCCF:51:1,2011-04-03T01:00:00Z,26.5545,-82.1715,1.447,6.53,1111122 
SCCF RECON,ioos:station:SCCF:51:1,2011-04-03T02:00:00Z,26.5545,-82.1715,1.522,5.93,1111122 
SCCF RECON,ioos:station:SCCF:51:1,2011-04-03T03:00:00Z,26.5545,-82.1715,1.64,6.18,1111122 
SCCF RECON,ioos:station:SCCF:51:1,2011-04-03T04:00:00Z,26.5545,-82.1715,1.763,6.54,1111122 
SCCF RECON,ioos:station:SCCF:51:1,2011-04-03T05:00:00Z,26.5545,-82.1715,1.859,5.65,1111122 
SCCF RECON,ioos:station:SCCF:51:1,2011-04-03T06:00:00Z,26.5545,-82.1715,1.891,5.16,1111122 
SCCF RECON,ioos:station:SCCF:51:1,2011-04-03T07:00:00Z,26.5545,-82.1715,1.841,5.71,1111122 
SCCF RECON,ioos:station:SCCF:51:1,2011-04-03T08:00:00Z,26.5545,-82.1715,1.767,5.85,1111122 
SCCF RECON,ioos:station:SCCF:51:1,2011-04-03T09:00:00Z,26.5545,-82.1715,1.679,5.53,1111122 
SCCF RECON,ioos:station:SCCF:51:1,2011-04-03T10:00:00Z,26.5545,-82.1715,1.605,5.56,1111122 
SCCF RECON,ioos:station:SCCF:51:1,2011-04-03T11:00:00Z,26.5545,-82.1715,1.547,5.71,1111122 
SCCF RECON,ioos:station:SCCF:51:1,2011-04-03T12:00:00Z,26.5545,-82.1715,1.519,5.75,1111122 
SCCF RECON,ioos:station:SCCF:51:1,2011-04-03T13:00:00Z,26.5545,-82.1715,1.54,5.74,1111122 
SCCF RECON,ioos:station:SCCF:51:1,2011-04-03T14:00:00Z,26.5545,-82.1715,1.602,5.65,1111122 
SCCF RECON,ioos:station:SCCF:51:1,2011-04-03T15:00:00Z,26.5545,-82.1715,1.687,5.84,1111122 
SCCF RECON,ioos:station:SCCF:51:1,2011-04-03T16:00:00Z,26.5545,-82.1715,1.782,5.86,1111122 
SCCF RECON,ioos:station:SCCF:51:1,2011-04-03T17:00:00Z,26.5545,-82.1715,1.859,5.87,1111122 
SCCF RECON,ioos:station:SCCF:51:1,2011-04-03T18:00:00Z,26.5545,-82.1715,1.869,5.85,1111122 
SCCF RECON,ioos:station:SCCF:51:1,2011-04-03T19:00:00Z,26.5545,-82.1715,1.795,6.04,1111122 
SCCF RECON,ioos:station:SCCF:51:1,2011-04-03T20:00:00Z,26.5545,-82.1715,1.699,6.3,1111122 
SCCF RECON,ioos:station:SCCF:51:1,2011-04-03T21:00:00Z,26.5545,-82.1715,1.587,6.41,1111122 
SCCF RECON,ioos:station:SCCF:51:1,2011-04-03T22:00:00Z,26.5545,-82.1715,1.478,6.83,1111122 
SCCF RECON,ioos:station:SCCF:51:1,2011-04-03T23:00:00Z,26.5545,-82.1715,1.39,7.18,1111122 
SCCF RECON,ioos:station:SCCF:51:1,2011-04-04T00:00:00Z,26.5545,-82.1715,1.347,7.21,1111122 
SCCF RECON,ioos:station:SCCF:51:1,2011-04-04T01:00:00Z,26.5545,-82.1715,1.37,7.16,1111122 
SCCF RECON,ioos:station:SCCF:51:1,2011-04-04T02:00:00Z,26.5545,-82.1715,1.461,7.22,1111122 
SCCF RECON,ioos:station:SCCF:51:1,2011-04-04T03:00:00Z,26.5545,-82.1715,1.565,6.4,1111122 
SCCF RECON,ioos:station:SCCF:51:1,2011-04-04T04:00:00Z,26.5545,-82.1715,1.691,6.23,1111122 
SCCF RECON,ioos:station:SCCF:51:1,2011-04-04T05:00:00Z,26.5545,-82.1715,1.808,6.07,1111122 
SCCF RECON,ioos:station:SCCF:51:1,2011-04-04T06:00:00Z,26.5545,-82.1715,1.889,5.87,1111122 
SCCF RECON,ioos:station:SCCF:51:1,2011-04-04T07:00:00Z,26.5545,-82.1715,1.895,5.87,1111122 
SCCF RECON,ioos:station:SCCF:51:1,2011-04-04T08:00:00Z,26.5545,-82.1715,1.83,5.99,1111122 
SCCF RECON,ioos:station:SCCF:51:1,2011-04-04T09:00:00Z,26.5545,-82.1715,1.755,6.0,1111122 
SCCF RECON,ioos:station:SCCF:51:1,2011-04-04T10:00:00Z,26.5545,-82.1715,1.69,6.34,1111122 
SCCF RECON,ioos:station:SCCF:51:1,2011-04-04T11:00:00Z,26.5545,-82.1715,1.639,6.57,1111122 
SCCF RECON,ioos:station:SCCF:51:1,2011-04-04T12:00:00Z,26.5545,-82.1715,1.632,6.62,1111122 
SCCF RECON,ioos:station:SCCF:51:1,2011-04-04T13:00:00Z,26.5545,-82.1715,1.68,6.07,1111122 
SCCF RECON,ioos:station:SCCF:51:1,2011-04-04T14:00:00Z,26.5545,-82.1715,1.766,6.14,1111122 
SCCF RECON,ioos:station:SCCF:51:1,2011-04-04T15:00:00Z,26.5545,-82.1715,1.863,5.57,1111122 
SCCF RECON,ioos:station:SCCF:51:1,2011-04-04T16:00:00Z,26.5545,-82.1715,1.961,5.77,1111122 
SCCF RECON,ioos:station:SCCF:51:1,2011-04-04T17:00:00Z,26.5545,-82.1715,2.023,5.95,1111122 
SCCF RECON,ioos:station:SCCF:51:1,2011-04-04T18:00:00Z,26.5545,-82.1715,2.026,6.1,1111122 
SCCF RECON,ioos:station:SCCF:51:1,2011-04-04T19:00:00Z,26.5545,-82.1715,1.971,6.2,1111122 
SCCF RECON,ioos:station:SCCF:51:1,2011-04-04T20:00:00Z,26.5545,-82.1715,1.886,6.53,1111122 
SCCF RECON,ioos:station:SCCF:51:1,2011-04-04T21:00:00Z,26.5545,-82.1715,1.793,7.05,1111122 
SCCF RECON,ioos:station:SCCF:51:1,2011-04-04T22:00:00Z,26.5545,-82.1715,1.671,7.01,1111122 
SCCF RECON,ioos:station:SCCF:51:1,2011-04-04T23:00:00Z,26.5545,-82.1715,1.56,6.98,1111122 
SCCF RECON,ioos:station:SCCF:51:1,2011-04-05T00:00:00Z,26.5545,-82.1715,1.473,6.56,1111122 
SCCF RECON,ioos:station:SCCF:51:1,2011-04-05T01:00:00Z,26.5545,-82.1715,1.422,6.41,1111122 
SCCF RECON,ioos:station:SCCF:51:1,2011-04-05T02:00:00Z,26.5545,-82.1715,1.457,6.49,1111122 
SCCF RECON,ioos:station:SCCF:51:1,2011-04-05T03:00:00Z,26.5545,-82.1715,1.55,6.35,1111122 
SCCF RECON,ioos:station:SCCF:51:1,2011-04-05T04:00:00Z,26.5545,-82.1715,1.679,6.01,1111122 
SCCF RECON,ioos:station:SCCF:51:1,2011-04-05T05:00:00Z,26.5545,-82.1715,1.801,5.82,1111122 
SCCF RECON,ioos:station:SCCF:51:1,2011-04-05T06:00:00Z,26.5545,-82.1715,1.904,5.61,1111122 
SCCF RECON,ioos:station:SCCF:51:1,2011-04-05T07:00:00Z,26.5545,-82.1715,1.949,5.6,1111122 
SCCF RECON,ioos:station:SCCF:51:1,2011-04-05T08:00:00Z,26.5545,-82.1715,1.921,5.65,1111122 
SCCF RECON,ioos:station:SCCF:51:1,2011-04-05T09:00:00Z,26.5545,-82.1715,1.862,5.69,1111122 
SCCF RECON,ioos:station:SCCF:51:1,2011-04-05T10:00:00Z,26.5545,-82.1715,1.794,5.63,1111122 
SCCF RECON,ioos:station:SCCF:51:1,2011-04-05T11:00:00Z,26.5545,-82.1715,1.749,5.5,1111122 
SCCF RECON,ioos:station:SCCF:51:1,2011-04-05T12:00:00Z,26.5545,-82.1715,1.736,5.36,1111122 
SCCF RECON,ioos:station:SCCF:51:1,2011-04-05T13:00:00Z,26.5545,-82.1715,1.763,5.38,1111122 
SCCF RECON,ioos:station:SCCF:51:1,2011-04-05T14:00:00Z,26.5545,-82.1715,1.843,5.65,1111122 
SCCF RECON,ioos:station:SCCF:51:1,2011-04-05T15:00:00Z,26.5545,-82.1715,1.942,5.73,1111122 
SCCF RECON,ioos:station:SCCF:51:1,2011-04-05T16:00:00Z,26.5545,-82.1715,2.087,5.81,1111122 
SCCF RECON,ioos:station:SCCF:51:1,2011-04-05T17:00:00Z,26.5545,-82.1715,2.025,5.56,1111122 
SCCF RECON,ioos:station:SCCF:51:1,2011-04-05T18:00:00Z,26.5545,-82.1715,2.038,5.88,1111122 
SCCF RECON,ioos:station:SCCF:51:1,2011-04-05T19:00:00Z,26.5545,-82.1715,2.041,5.99,1111122 
SCCF RECON,ioos:station:SCCF:51:1,2011-04-05T20:00:00Z,26.5545,-82.1715,1.908,5.99,1111122 
SCCF RECON,ioos:station:SCCF:51:1,2011-04-05T21:00:00Z,26.5545,-82.1715,1.819,5.9,1111122 
SCCF RECON,ioos:station:SCCF:51:1,2011-04-05T22:00:00Z,26.5545,-82.1715,1.723,5.83,1111122 
SCCF RECON,ioos:station:SCCF:51:1,2011-04-05T23:00:00Z,26.5545,-82.1715,1.62,5.93,1111122 
SCCF RECON,ioos:station:SCCF:51:1,2011-04-06T00:00:00Z,26.5545,-82.1715,1.526,5.89,1111122 
SCCF RECON,ioos:station:SCCF:51:1,2011-04-06T01:00:00Z,26.5545,-82.1715,1.441,5.62,1111122 
SCCF RECON,ioos:station:SCCF:51:1,2011-04-06T02:00:00Z,26.5545,-82.1715,1.389,5.61,1111122 
SCCF RECON,ioos:station:SCCF:51:1,2011-04-06T03:00:00Z,26.5545,-82.1715,1.368,5.9,1111122 
SCCF RECON,ioos:station:SCCF:51:1,2011-04-06T04:00:00Z,26.5545,-82.1715,1.465,5.79,1111122 
SCCF RECON,ioos:station:SCCF:51:1,2011-04-06T05:00:00Z,26.5545,-82.1715,1.546,5.88,1111122 
SCCF RECON,ioos:station:SCCF:51:1,2011-04-06T06:00:00Z,26.5545,-82.1715,1.639,5.79,1111122 
SCCF RECON,ioos:station:SCCF:51:1,2011-04-06T07:00:00Z,26.5545,-82.1715,1.734,5.75,1111122 
SCCF RECON,ioos:station:SCCF:51:1,2011-04-06T08:00:00Z,26.5545,-82.1715,1.784,5.66,1111122 
SCCF RECON,ioos:station:SCCF:51:1,2011-04-06T09:00:00Z,26.5545,-82.1715,1.757,5.61,1111122 
SCCF RECON,ioos:station:SCCF:51:1,2011-04-06T10:00:00Z,26.5545,-82.1715,1.703,5.62,1111122 
SCCF RECON,ioos:station:SCCF:51:1,2011-04-06T11:00:00Z,26.5545,-82.1715,1.651,5.51,1111122 
SCCF RECON,ioos:station:SCCF:51:1,2011-04-06T12:00:00Z,26.5545,-82.1715,1.606,5.48,1111122 
SCCF RECON,ioos:station:SCCF:51:1,2011-04-06T13:00:00Z,26.5545,-82.1715,1.602,5.7,1111122 
SCCF RECON,ioos:station:SCCF:51:1,2011-04-06T14:00:00Z,26.5545,-82.1715,1.653,5.86,1111122 
SCCF RECON,ioos:station:SCCF:51:1,2011-04-06T15:00:00Z,26.5545,-82.1715,1.739,5.97,1111122 
SCCF RECON,ioos:station:SCCF:51:1,2011-04-06T16:00:00Z,26.5545,-82.1715,1.829,6.13,1111122 
SCCF RECON,ioos:station:SCCF:51:1,2011-04-06T17:00:00Z,26.5545,-82.1715,1.929,6.03,1111122 
SCCF RECON,ioos:station:SCCF:51:1,2011-04-06T18:00:00Z,26.5545,-82.1715,1.997,6.2,1111122 
SCCF RECON,ioos:station:SCCF:51:1,2011-04-06T19:00:00Z,26.5545,-82.1715,2.013,6.33,1111122 
SCCF RECON,ioos:station:SCCF:51:1,2011-04-06T20:00:00Z,26.5545,-82.1715,1.971,6.16,1111122 
SCCF RECON,ioos:station:SCCF:51:1,2011-04-06T21:00:00Z,26.5545,-82.1715,1.886,6.4,1111122 
SCCF RECON,ioos:station:SCCF:51:1,2011-04-06T22:00:00Z,26.5545,-82.1715,1.787,6.52,1111122 
SCCF RECON,ioos:station:SCCF:51:1,2011-04-06T23:00:00Z,26.5545,-82.1715,1.669,6.61,1111122 
SCCF RECON,ioos:station:SCCF:51:1,2011-04-07T00:00:00Z,26.5545,-82.1715,1.562,6.92,1111122 
SCCF RECON,ioos:station:SCCF:51:1,2011-04-07T01:00:00Z,26.5545,-82.1715,1.47,7.29,1111122 
SCCF RECON,ioos:station:SCCF:51:1,2011-04-07T02:00:00Z,26.5545,-82.1715,1.409,7.32,1111122 
SCCF RECON,ioos:station:SCCF:51:1,2011-04-07T03:00:00Z,26.5545,-82.1715,1.386,7.32,1111122 
SCCF RECON,ioos:station:SCCF:51:1,2011-04-07T04:00:00Z,26.5545,-82.1715,1.448,7.35,1111122 
SCCF RECON,ioos:station:SCCF:51:1,2011-04-07T05:00:00Z,26.5545,-82.1715,1.543,7.33,1111122 
SCCF RECON,ioos:station:SCCF:51:1,2011-04-07T06:00:00Z,26.5545,-82.1715,1.651,6.19,1111122 
SCCF RECON,ioos:station:SCCF:51:1,2011-04-07T07:00:00Z,26.5545,-82.1715,1.725,6.0,1111122 
SCCF RECON,ioos:station:SCCF:51:1,2011-04-07T08:00:00Z,26.5545,-82.1715,1.77,5.95,1111122 
SCCF RECON,ioos:station:SCCF:51:1,2011-04-07T09:00:00Z,26.5545,-82.1715,1.78,5.89,1111122 
SCCF RECON,ioos:station:SCCF:51:1,2011-04-07T10:00:00Z,26.5545,-82.1715,1.745,5.96,1111122 
SCCF RECON,ioos:station:SCCF:51:1,2011-04-07T11:00:00Z,26.5545,-82.1715,1.715,5.81,1111122 
SCCF RECON,ioos:station:SCCF:51:1,2011-04-07T12:00:00Z,26.5545,-82.1715,1.704,5.59,1111122 
SCCF RECON,ioos:station:SCCF:51:1,2011-04-07T13:00:00Z,26.5545,-82.1715,1.726,5.73,1111122 
SCCF RECON,ioos:station:SCCF:51:1,2011-04-07T14:00:00Z,26.5545,-82.1715,1.785,5.9,1111122 
SCCF RECON,ioos:station:SCCF:51:1,2011-04-07T15:00:00Z,26.5545,-82.1715,1.859,6.01,1111122 
SCCF RECON,ioos:station:SCCF:51:1,2011-04-07T16:00:00Z,26.5545,-82.1715,1.952,5.81,1111122 
SCCF RECON,ioos:station:SCCF:51:1,2011-04-07T17:00:00Z,26.5545,-82.1715,2.04,6.06,1111122 
SCCF RECON,ioos:station:SCCF:51:1,2011-04-07T18:00:00Z,26.5545,-82.1715,2.095,6.1,1111122 
SCCF RECON,ioos:station:SCCF:51:1,2011-04-07T19:00:00Z,26.5545,-82.1715,2.097,6.08,1111122 
SCCF RECON,ioos:station:SCCF:51:1,2011-04-07T20:00:00Z,26.5545,-82.1715,2.055,6.14,1111122 
SCCF RECON,ioos:station:SCCF:51:1,2011-04-07T21:00:00Z,26.5545,-82.1715,1.986,6.25,1111122 
SCCF RECON,ioos:station:SCCF:51:1,2011-04-07T22:00:00Z,26.5545,-82.1715,1.898,6.28,1111122 
SCCF RECON,ioos:station:SCCF:51:1,2011-04-07T23:00:00Z,26.5545,-82.1715,1.796,6.58,1111122 
SCCF RECON,ioos:station:SCCF:51:1,2011-04-08T00:00:00Z,26.5545,-82.1715,1.686,7.12,1111122 
SCCF RECON,ioos:station:SCCF:51:1,2011-04-08T01:00:00Z,26.5545,-82.1715,1.582,6.88,1111122 
SCCF RECON,ioos:station:SCCF:51:1,2011-04-08T02:00:00Z,26.5545,-82.1715,1.5,6.9,1111122 
SCCF RECON,ioos:station:SCCF:51:1,2011-04-08T03:00:00Z,26.5545,-82.1715,1.45,7.19,1111122 
SCCF RECON,ioos:station:SCCF:51:1,2011-04-08T04:00:00Z,26.5545,-82.1715,1.47,7.2,1111122 
SCCF RECON,ioos:station:SCCF:51:1,2011-04-08T05:00:00Z,26.5545,-82.1715,1.55,6.71,1111122 
SCCF RECON,ioos:station:SCCF:51:1,2011-04-08T06:00:00Z,26.5545,-82.1715,1.65,6.45,1111122 
SCCF RECON,ioos:station:SCCF:51:1,2011-04-08T07:00:00Z,26.5545,-82.1715,1.75,6.01,1111122 
SCCF RECON,ioos:station:SCCF:51:1,2011-04-08T08:00:00Z,26.5545,-82.1715,1.81,6.05,1111122 
SCCF RECON,ioos:station:SCCF:51:1,2011-04-08T09:00:00Z,26.5545,-82.1715,1.84,5.84,1111122 
SCCF RECON,ioos:station:SCCF:51:1,2011-04-08T10:00:00Z,26.5545,-82.1715,1.839,5.74,1111122 
SCCF RECON,ioos:station:SCCF:51:1,2011-04-08T11:00:00Z,26.5545,-82.1715,1.811,6.06,1111122 
SCCF RECON,ioos:station:SCCF:51:1,2011-04-08T12:00:00Z,26.5545,-82.1715,1.798,6.03,1111122 
SCCF RECON,ioos:station:SCCF:51:1,2011-04-08T13:00:00Z,26.5545,-82.1715,1.794,6.02,1111122 
SCCF RECON,ioos:station:SCCF:51:1,2011-04-08T14:00:00Z,26.5545,-82.1715,1.802,6.03,1111122 
SCCF RECON,ioos:station:SCCF:51:1,2011-04-08T15:00:00Z,26.5545,-82.1715,1.831,6.31,1111122 
SCCF RECON,ioos:station:SCCF:51:1,2011-04-08T16:00:00Z,26.5545,-82.1715,1.877,6.13,1111122 
SCCF RECON,ioos:station:SCCF:51:1,2011-04-08T17:00:00Z,26.5545,-82.1715,1.929,6.32,1111122 
SCCF RECON,ioos:station:SCCF:51:1,2011-04-08T18:00:00Z,26.5545,-82.1715,1.992,6.19,1111122 
SCCF RECON,ioos:station:SCCF:51:1,2011-04-08T19:00:00Z,26.5545,-82.1715,2.039,6.18,1111122 
SCCF RECON,ioos:station:SCCF:51:1,2011-04-08T20:00:00Z,26.5545,-82.1715,2.047,6.18,1111122 
SCCF RECON,ioos:station:SCCF:51:1,2011-04-08T21:00:00Z,26.5545,-82.1715,2.007,6.09,1111122 
SCCF RECON,ioos:station:SCCF:51:1,2011-04-08T22:00:00Z,26.5545,-82.1715,1.933,6.4,1111122 
SCCF RECON,ioos:station:SCCF:51:1,2011-04-08T23:00:00Z,26.5545,-82.1715,1.848,6.58,1111122 
SCCF RECON,ioos:station:SCCF:51:1,2011-04-09T00:00:00Z,26.5545,-82.1715,1.739,6.64,1111122 
SCCF RECON,ioos:station:SCCF:51:1,2011-04-09T01:00:00Z,26.5545,-82.1715,1.636,6.88,1111122 
SCCF RECON,ioos:station:SCCF:51:1,2011-04-09T02:00:00Z,26.5545,-82.1715,1.551,6.82,1111122 
SCCF RECON,ioos:station:SCCF:51:1,2011-04-09T03:00:00Z,26.5545,-82.1715,1.472,6.71,1111122 
SCCF RECON,ioos:station:SCCF:51:1,2011-04-09T04:00:00Z,26.5545,-82.1715,1.44,6.67,1111122 
SCCF RECON,ioos:station:SCCF:51:1,2011-04-09T05:00:00Z,26.5545,-82.1715,1.48,6.74,1111122 
SCCF RECON,ioos:station:SCCF:51:1,2011-04-09T06:00:00Z,26.5545,-82.1715,1.55,6.39,1111122 
SCCF RECON,ioos:station:SCCF:51:1,2011-04-09T07:00:00Z,26.5545,-82.1715,1.65,6.03,1111122 
SCCF RECON,ioos:station:SCCF:51:1,2011-04-09T08:00:00Z,26.5545,-82.1715,1.74,5.83,1111122 
SCCF RECON,ioos:station:SCCF:51:1,2011-04-09T09:00:00Z,26.5545,-82.1715,1.81,5.77,1111122 
SCCF RECON,ioos:station:SCCF:51:1,2011-04-09T10:00:00Z,26.5545,-82.1715,1.85,5.63,1111122 
SCCF RECON,ioos:station:SCCF:51:1,2011-04-09T11:00:00Z,26.5545,-82.1715,1.87,5.51,1111122 
SCCF RECON,ioos:station:SCCF:51:1,2011-04-09T12:00:00Z,26.5545,-82.1715,1.868,5.72,1111122 
SCCF RECON,ioos:station:SCCF:51:1,2011-04-09T13:00:00Z,26.5545,-82.1715,1.861,5.83,1111122 
SCCF RECON,ioos:station:SCCF:51:1,2011-04-09T14:00:00Z,26.5545,-82.1715,1.862,5.66,1111122 
SCCF RECON,ioos:station:SCCF:51:1,2011-04-09T15:00:00Z,26.5545,-82.1715,1.892,5.56,1111122 
SCCF RECON,ioos:station:SCCF:51:1,2011-04-09T16:00:00Z,26.5545,-82.1715,1.931,5.97,1111122 
SCCF RECON,ioos:station:SCCF:51:1,2011-04-09T17:00:00Z,26.5545,-82.1715,1.985,6.03,1111122 
SCCF RECON,ioos:station:SCCF:51:1,2011-04-09T18:00:00Z,26.5545,-82.1715,2.028,6.23,1111122 
SCCF RECON,ioos:station:SCCF:51:1,2011-04-09T19:00:00Z,26.5545,-82.1715,2.071,6.21,1111122 
SCCF RECON,ioos:station:SCCF:51:1,2011-04-09T20:00:00Z,26.5545,-82.1715,2.094,6.28,1111122 
SCCF RECON,ioos:station:SCCF:51:1,2011-04-09T21:00:00Z,26.5545,-82.1715,2.073,6.21,1111122 
SCCF RECON,ioos:station:SCCF:51:1,2011-04-09T22:00:00Z,26.5545,-82.1715,2.022,6.21,1111122 
SCCF RECON,ioos:station:SCCF:51:1,2011-04-09T23:00:00Z,26.5545,-82.1715,1.95,6.17,1111122 
SCCF RECON,ioos:station:SCCF:51:1,2011-04-10T00:00:00Z,26.5545,-82.1715,1.858,6.14,1111122 
SCCF RECON,ioos:station:SCCF:51:1,2011-04-10T01:00:00Z,26.5545,-82.1715,1.753,6.08,1111122 
SCCF RECON,ioos:station:SCCF:51:1,2011-04-10T02:00:00Z,26.5545,-82.1715,1.649,6.06,1111122 
SCCF RECON,ioos:station:SCCF:51:1,2011-04-10T03:00:00Z,26.5545,-82.1715,1.554,5.99,1111122 
SCCF RECON,ioos:station:SCCF:51:1,2011-04-10T04:00:00Z,26.5545,-82.1715,1.474,5.92,1111122 
SCCF RECON,ioos:station:SCCF:51:1,2011-04-10T05:00:00Z,26.5545,-82.1715,1.432,6.03,1111122 
SCCF RECON,ioos:station:SCCF:51:1,2011-04-10T06:00:00Z,26.5545,-82.1715,1.455,5.83,1111122 
SCCF RECON,ioos:station:SCCF:51:1,2011-04-10T07:00:00Z,26.5545,-82.1715,1.52,5.73,1111122 
SCCF RECON,ioos:station:SCCF:51:1,2011-04-10T08:00:00Z,26.5545,-82.1715,1.6,5.6,1111122 
SCCF RECON,ioos:station:SCCF:51:1,2011-04-10T09:00:00Z,26.5545,-82.1715,1.69,5.46,1111122 
SCCF RECON,ioos:station:SCCF:51:1,2011-04-10T10:00:00Z,26.5545,-82.1715,1.762,5.63,1111122 
SCCF RECON,ioos:station:SCCF:51:1,2011-04-10T11:00:00Z,26.5545,-82.1715,1.818,5.11,1111122 
SCCF RECON,ioos:station:SCCF:51:1,2011-04-10T12:00:00Z,26.5545,-82.1715,1.85,5.19,1111122 
SCCF RECON,ioos:station:SCCF:51:1,2011-04-10T13:00:00Z,26.5545,-82.1715,1.865,4.99,1111122 
SCCF RECON,ioos:station:SCCF:51:1,2011-04-10T14:00:00Z,26.5545,-82.1715,1.87,5.21,1111122 
SCCF RECON,ioos:station:SCCF:51:1,2011-04-10T15:00:00Z,26.5545,-82.1715,1.887,5.12,1111122 
SCCF RECON,ioos:station:SCCF:51:1,2011-04-10T16:00:00Z,26.5545,-82.1715,1.91,5.43,1111122 
SCCF RECON,ioos:station:SCCF:51:1,2011-04-10T17:00:00Z,26.5545,-82.1715,1.933,5.75,1111122 
SCCF RECON,ioos:station:SCCF:51:1,2011-04-10T18:00:00Z,26.5545,-82.1715,1.963,5.74,1111122 
SCCF RECON,ioos:station:SCCF:51:1,2011-04-10T19:00:00Z,26.5545,-82.1715,2.001,5.98,1111122 
SCCF RECON,ioos:station:SCCF:51:1,2011-04-10T20:00:00Z,26.5545,-82.1715,2.046,6.08,1111122 
SCCF RECON,ioos:station:SCCF:51:1,2011-04-10T21:00:00Z,26.5545,-82.1715,2.076,6.15,1111122 
SCCF RECON,ioos:station:SCCF:51:1,2011-04-10T22:00:00Z,26.5545,-82.1715,2.077,6.04,1111122 
SCCF RECON,ioos:station:SCCF:51:1,2011-04-10T23:00:00Z,26.5545,-82.1715,2.033,5.9,1111122 
SCCF RECON,ioos:station:SCCF:51:1,2011-04-11T00:00:00Z,26.5545,-82.1715,1.967,5.98,1111122 
SCCF RECON,ioos:station:SCCF:51:1,2011-04-11T01:00:00Z,26.5545,-82.1715,1.89,5.88,1111122 
SCCF RECON,ioos:station:SCCF:51:1,2011-04-11T02:00:00Z,26.5545,-82.1715,1.794,5.75,1111122 
SCCF RECON,ioos:station:SCCF:51:1,2011-04-11T03:00:00Z,26.5545,-82.1715,1.69,5.92,1111122 
SCCF RECON,ioos:station:SCCF:51:1,2011-04-11T04:00:00Z,26.5545,-82.1715,1.596,5.94,1111122 
SCCF RECON,ioos:station:SCCF:51:1,2011-04-11T05:00:00Z,26.5545,-82.1715,1.502,5.77,1111122 
SCCF RECON,ioos:station:SCCF:51:1,2011-04-11T06:00:00Z,26.5545,-82.1715,1.45,5.67,1111122 
SCCF RECON,ioos:station:SCCF:51:1,2011-04-11T07:00:00Z,26.5545,-82.1715,1.45,5.72,1111122 
SCCF RECON,ioos:station:SCCF:51:1,2011-04-11T08:00:00Z,26.5545,-82.1715,1.52,5.67,1111122 
SCCF RECON,ioos:station:SCCF:51:1,2011-04-11T09:00:00Z,26.5545,-82.1715,1.607,5.6,1111122 
SCCF RECON,ioos:station:SCCF:51:1,2011-04-11T10:00:00Z,26.5545,-82.1715,1.7,5.39,1111122 
SCCF RECON,ioos:station:SCCF:51:1,2011-04-11T11:00:00Z,26.5545,-82.1715,1.78,5.23,1111122 
SCCF RECON,ioos:station:SCCF:51:1,2011-04-11T12:00:00Z,26.5545,-82.1715,1.838,4.92,1111122 
SCCF RECON,ioos:station:SCCF:51:1,2011-04-11T13:00:00Z,26.5545,-82.1715,1.878,5.2,1111122 
SCCF RECON,ioos:station:SCCF:51:1,2011-04-11T14:00:00Z,26.5545,-82.1715,1.904,5.08,1111122 
SCCF RECON,ioos:station:SCCF:51:1,2011-04-11T15:00:00Z,26.5545,-82.1715,1.912,5.24,1111122 
SCCF RECON,ioos:station:SCCF:51:1,2011-04-11T16:00:00Z,26.5545,-82.1715,1.89,5.34,1111122 
SCCF RECON,ioos:station:SCCF:51:1,2011-04-11T17:00:00Z,26.5545,-82.1715,1.885,5.43,1111122 
SCCF RECON,ioos:station:SCCF:51:1,2011-04-11T18:00:00Z,26.5545,-82.1715,1.892,5.74,1111122 
SCCF RECON,ioos:station:SCCF:51:1,2011-04-11T19:00:00Z,26.5545,-82.1715,1.93,5.75,1111122 